This is the latest recevied weather packets stored in our database for station/object F4NFR-13. If no packets are shown the sender has not sent any weather packets the latest 1 day(s).
| Time | Temp. | Humidity | Pressure | Rain* | Wind** | Luminosity | Snow |
|---|---|---|---|---|---|---|---|
| 1778013484 | 10° C | 80% | 1012.7 hPa | 0 mm | 4.02 m/s, 28° | 0 W/m² | - |
| 1778013182 | 10° C | 80% | 1012.7 hPa | 0 mm | 2.24 m/s, 38° | 0 W/m² | - |
| 1778012879 | 10° C | 79% | 1012.7 hPa | 0 mm | 4.02 m/s, 19° | 0 W/m² | - |
| 1778012578 | 10° C | 79% | 1012.7 hPa | 0 mm | 3.58 m/s, 31° | 0 W/m² | - |
| 1778012275 | 10° C | 79% | 1012.7 hPa | 0 mm | 3.13 m/s, 45° | 0 W/m² | - |
| 1778011973 | 10° C | 79% | 1012.3 hPa | 0 mm | 3.13 m/s, 29° | 0 W/m² | - |
| 1778011671 | 10° C | 78% | 1012.3 hPa | 0 mm | 4.02 m/s, 72° | 0 W/m² | - |
| 1778011368 | 10° C | 78% | 1012.3 hPa | 0 mm | 2.68 m/s, 77° | 0 W/m² | - |
| 1778011066 | 10° C | 78% | 1012.3 hPa | 0 mm | 2.68 m/s, 25° | 0 W/m² | - |
| 1778010763 | 10° C | 77% | 1012.3 hPa | 0 mm | 4.02 m/s, 20° | 0 W/m² | - |
| 1778010461 | 10° C | 76% | 1012.3 hPa | 0 mm | 2.68 m/s, 25° | 0 W/m² | - |
| 1778010158 | 10° C | 75% | 1012.3 hPa | 0 mm | 3.58 m/s, 300° | 0 W/m² | - |
| 1778009856 | 10° C | 75% | 1012.3 hPa | 0 mm | 1.79 m/s, 44° | 0 W/m² | - |
| 1778009554 | 11.11° C | 75% | 1012 hPa | 0 mm | 4.02 m/s, 55° | 0 W/m² | - |
| 1778009251 | 11.11° C | 74% | 1012 hPa | 0 mm | 5.36 m/s, 35° | 1 W/m² | - |
| 1778008949 | 11.11° C | 74% | 1012 hPa | 0 mm | 3.58 m/s, 53° | 2 W/m² | - |
| 1778008646 | 11.11° C | 74% | 1012 hPa | 0 mm | 4.02 m/s, 84° | 3 W/m² | - |
| 1778008344 | 11.11° C | 73% | 1012 hPa | 0 mm | 2.68 m/s, 73° | 5 W/m² | - |
| 1778008042 | 11.11° C | 73% | 1012 hPa | 0 mm | 3.13 m/s, 77° | 7 W/m² | - |
| 1778007739 | 11.11° C | 73% | 1012 hPa | 0 mm | 3.13 m/s, 56° | 8 W/m² | - |
| 1778007134 | 11.11° C | 72% | 1012 hPa | 0 mm | 2.68 m/s, 31° | 14 W/m² | - |
| 1778006529 | 11.11° C | 71% | 1011.7 hPa | 0 mm | 3.13 m/s, 42° | 23 W/m² | - |
| 1778006226 | 11.11° C | 70% | 1011.7 hPa | 0 mm | 4.47 m/s, 31° | 28 W/m² | - |
| 1778005924 | 11.11° C | 70% | 1011.7 hPa | 0 mm | 4.02 m/s, 48° | 34 W/m² | - |
| 1778005621 | 12.22° C | 70% | 1011.7 hPa | 0 mm | 4.02 m/s, 11° | 40 W/m² | - |
* Rain latest hour (hover to see other rain measurements)
** Current wind speed in m/s (hover to see current wind gust speed)